Home > Weather > Yangon > Past weeks

Flag for Myanmar Past Weather in Yangon, Myanmar — Yesterday and Last 2 Weeks

Now
88 °F

Mostly cloudy.


Feels Like: N/A
Forecast: 80 / 88 °F
Wind: 6 mph from East

Location: Rangoon Airport

Current Time: Aug 27, 2016 at 11:31:41 AM

Latest Report: Aug 27, 2016 at 11:00 AM


Visibility: 4 mi

Pressure: N/A

Humidity: N/A

Dew Point: N/A

Location of YangonLocation

Past Weather in Yangon — Graph

°F

Yangon Temperature Yesterday

Maximum temperature yesterday: 90 °F (at 4:30 PM)
Minimum temperature yesterday: 77 °F (at 6:00 AM)
Average temperature yesterday: 84 °F

High & Low Weather Summary for the Past Weeks

 TemperatureHumidityPressure
High100 °F (Aug 19, 8:00 PM)100% (Aug 13, 6:30 AM)29.83 "Hg (Aug 13, 6:30 AM)
Low77 °F (Aug 13, 6:00 AM)42% (Aug 19, 8:00 PM)29.56 "Hg (Aug 15, 4:00 PM)
Average82 °F88%29.68 "Hg
* Reported Aug 12 9:30 AM — Aug 27 10:00 AM, Yangon, Weather by CustomWeather, © 2016

Note: Actual official high and low records may vary slightly from our data, if they occured in-between our weather recording intervals... More about our weather records

Advertising

Yangon Weather History for the Previous 24 Hours

Scroll right to see more
 ConditionsComfort  
Time TempWeatherWind HumidityBarometerVisibility
10:00 AM
Sat, Aug 27
86 °FPartly sunny.5 mph75%29.83 "Hg5 mi
9:30 AM84 °FPartly sunny.9 mph84%29.83 "Hg5 mi
9:00 AM84 °FPartly sunny.3 mph84%29.83 "Hg5 mi
8:30 AM82 °FPartly sunny.5 mph84%29.80 "Hg5 mi
8:00 AM82 °FPartly sunny.3 mph84%29.80 "Hg5 mi
7:30 AM81 °FPartly sunny.2 mph94%29.80 "Hg4 mi
7:00 AM81 °FPartly sunny.2 mph94%29.77 "Hg4 mi
6:30 AM79 °FPartly sunny.2 mph94%29.77 "Hg4 mi
6:00 AM79 °FPassing clouds.2 mph94%29.77 "Hg4 mi
5:30 AM79 °FPartly cloudy.2 mphN/AN/A4 mi
5:00 AM79 °FPartly cloudy.2 mph94%29.77 "Hg4 mi
4:30 AM81 °FPartly cloudy.2 mph89%29.77 "Hg4 mi
4:00 AM81 °FPartly cloudy.No wind89%29.77 "Hg4 mi
1:30 AM82 °FPartly cloudy.No wind84%29.77 "Hg4 mi
1:00 AM82 °FPartly cloudy.No wind84%29.77 "Hg4 mi
12:30 AM82 °FPartly cloudy.3 mph84%29.77 "Hg4 mi
12:00 AM82 °FPartly cloudy.5 mph84%29.80 "Hg4 mi
11:30 PM
Fri, Aug 26
82 °FPartly cloudy.3 mph84%29.80 "Hg4 mi
11:00 PM82 °FPartly cloudy.5 mph84%29.80 "Hg4 mi
10:30 PM82 °FPassing clouds.2 mph84%29.80 "Hg4 mi
10:00 PM82 °FPassing clouds.2 mph84%29.80 "Hg4 mi
9:30 PM82 °FPassing clouds.2 mph84%29.77 "Hg4 mi
9:00 PM82 °FPassing clouds.2 mph84%29.77 "Hg4 mi
8:00 PM84 °FPassing clouds.5 mph84%29.74 "Hg4 mi
7:30 PM84 °FPartly cloudy.3 mph84%29.71 "Hg4 mi
7:00 PM84 °FPartly cloudy.6 mph84%29.71 "Hg4 mi
6:30 PM86 °FBroken clouds.6 mph75%29.68 "Hg4 mi
6:00 PM88 °FBroken clouds.5 mph70%29.68 "Hg5 mi
5:00 PM88 °FPartly sunny.5 mph70%29.65 "Hg5 mi
4:30 PM90 °FPartly sunny.5 mph71%29.65 "Hg5 mi
4:00 PM88 °FPartly sunny.7 mph70%29.68 "Hg5 mi
3:30 PM88 °FPartly sunny.9 mph70%29.68 "Hg5 mi
3:00 PM88 °FPartly sunny.N/A70%29.68 "Hg5 mi
2:00 PM86 °FPartly sunny.7 mph75%29.71 "Hg5 mi
1:00 PM84 °FMostly cloudy.3 mph89%29.74 "Hg4 mi
12:30 PM84 °FMostly cloudy.7 mph89%29.74 "Hg4 mi
12:00 PM84 °FThunderstorms. Mostly cloudy.8 mph89%29.77 "Hg4 mi
11:30 AM84 °FThunderstorms. Mostly cloudy.9 mph89%29.77 "Hg4 mi
11:00 AM86 °FPartly sunny.8 mph84%29.77 "Hg5 mi
Weather by CustomWeather, © 2016

See weather overviewHow to use our weather pages